PDT,Max TemperatureF,Mean TemperatureF,Min TemperatureF,Max Dew PointF,MeanDew PointF,Min DewpointF,Max Humidity, Mean Humidity, Min Humidity, Max Sea Level PressureIn, Mean Sea Level PressureIn, Min Sea Level PressureIn, Max VisibilityMiles, Mean VisibilityMiles, Min VisibilityMiles, Max Wind SpeedMPH, Mean Wind SpeedMPH, Max Gust SpeedMPH,PrecipitationIn, CloudCover, Events, WindDirDegrees
2013-9-1,83,62,41,53,36,27,78,46,14,29.98,29.92,29.88,10,10,10,13,3,17,0.02,3,Rain,256
2013-9-2,77,68,58,61,57,52,93,74,54,29.97,29.93,29.88,10,10,3,23,6,29,0.12,4,Rain,115
2013-9-3,86,71,55,58,55,51,93,63,32,30.04,29.95,29.86,10,10,10,22,7,26,T,4,Rain-Thunderstorm,72
2013-9-4,85,67,49,64,55,48,93,65,37,30.09,29.99,29.92,10,10,2,35,7,44,0.08,2,Rain-Thunderstorm,27
2013-9-5,82,63,43,58,51,43,100,66,32,30.01,29.94,29.87,10,9,2,26,6,35,0.35,2,Rain-Thunderstorm,345
2013-9-6,72,54,36,48,43,37,100,68,35,30.20,30.12,30.05,10,10,10,14,6,21,0.00,0,,224
2013-9-7,82,60,37,47,42,37,92,57,21,30.14,30.05,29.96,10,10,10,14,3,16,0.00,0,,298
2013-9-8,82,63,43,48,45,39,93,58,23,30.05,30.00,29.95,10,10,10,18,8,24,0.00,0,,301
2013-9-9,82,62,42,44,41,37,89,55,21,30.08,30.00,29.94,10,10,10,14,5,16,0.00,0,,263
2013-9-10,86,67,47,45,40,30,82,48,14,30.02,29.98,29.92,10,10,10,12,4,18,0.00,0,,309
2013-9-11,90,67,44,43,38,33,76,46,15,30.07,30.00,29.96,10,10,10,13,6,20,0.00,0,,330
2013-9-12,83,67,50,49,44,39,71,50,28,30.03,29.97,29.92,10,10,10,10,3,14,0.00,1,,249
2013-9-13,82,67,51,53,48,44,83,57,30,29.98,29.90,29.80,10,10,10,12,4,15,0.00,1,,221
2013-9-14,86,67,47,51,47,43,86,56,26,29.91,29.85,29.79,10,10,10,15,5,28,0.00,1,Thunderstorm,335
2013-9-15,86,65,44,59,51,45,89,57,25,29.91,29.80,29.72,10,10,7,20,8,26,0.06,3,Rain-Thunderstorm,35
2013-9-16,78,58,37,47,40,33,92,57,21,29.97,29.88,29.79,10,10,10,15,6,20,0.00,0,,249
2013-9-17,63,53,42,47,42,39,86,67,47,29.95,29.80,29.71,10,10,1,30,10,37,0.03,4,Rain,267
2013-9-18,62,46,30,41,34,28,89,61,32,30.14,30.07,29.97,10,10,10,15,6,22,T,4,,231
2013-9-19,73,51,28,34,28,21,92,53,14,30.17,30.06,29.93,10,10,10,17,9,25,0.00,0,,58
2013-9-20,83,57,30,29,25,16,78,44,9,29.92,29.76,29.62,10,10,8,22,9,26,0.00,0,,173
2013-9-21,57,49,41,47,43,31,100,75,50,29.80,29.75,29.65,10,9,1,18,5,23,0.09,6,Rain,239
2013-9-22,62,49,35,46,40,35,100,70,39,29.91,29.85,29.77,10,10,10,22,10,26,T,5,Rain,224
2013-9-23,68,54,40,44,39,35,96,64,32,30.02,29.96,29.91,10,10,10,16,6,22,0.00,4,,227
2013-9-24,61,50,38,46,40,34,92,76,59,29.91,29.86,29.81,10,10,2,33,8,46,0.06,6,Rain,246
2013-9-25,46,42,38,40,38,35,100,88,76,29.92,29.82,29.76,10,9,4,22,8,35,0.32,8,Rain,262
2013-9-26,52,44,36,37,34,32,85,70,54,30.10,29.97,29.89,10,10,10,32,14,38,0.00,5,,282
2013-9-27,60,43,26,41,32,26,100,64,28,30.21,30.13,30.05,10,10,9,21,6,28,T,3,,233
2013-9-28,64,53,42,43,39,34,92,64,36,30.04,29.91,29.72,10,10,10,25,12,36,T,4,Rain,155
2013-9-29,58,51,43,49,43,35,100,72,43,29.86,29.79,29.69,10,7,2,28,8,36,0.80,8,Rain,2
2013-9-30,58,45,32,49,36,29,89,62,35,30.04,29.90,29.67,10,10,9,30,12,38,0.08,3,Rain,241